Location: Castillon
(43.0896°N, 0.2156°E)
Time: 04:24:59
(UTC+00:00)

Cosmos 1980 Rocket - Pass Details

Date: 20 October 2021
Orbit: 828 x 851 km, 71.0° (Epoch: 07 December)

Event Time Altitude Azimuth Distance (km) Brightness Sun altitude
Rises 19:40:53 0° 260° (W) 3,392 6.4 -28.5°
Reaches altitude 10° 19:44:34 10° 284° (WNW) 2,467 5.6 -29.1°
Maximum altitude 19:47:34 14° 317° (NW) 2,176 4.9 -29.7°
Drops below altitude 10° 19:50:34 10° 349° (N) 2,480 4.9 -30.2°
Sets 19:54:19 0° 13° (NNE) 3,423 5.4 -30.9°
